Regional Weather Roundup
Issued by NWS State College, PA

Home | Current Version | Previous Version | Text Only | Print | Product List | Glossary Off
Versions: 1 2 3 4 5 6 7 8 9 10 11 12 13 14 15 16 17 18 19 20 21 22 23 24 25 26 27 28 29 30 31 32 33 34 35 36 37 38 39 40 41 42 43 44 45 46 47 48 49 50

000
ASUS41 KCTP 290010
RWRCTP

REGIONAL WEATHER ROUNDUP
NATIONAL WEATHER SERVICE STATE COLLEGE PA
800 PM EDT TUE MAR 28 2017

Note: "fair" indicates few or no clouds below 12,000 feet with no
significant weather and/or obstructions to visibility.

* = STATION THAT DOES NOT REPORT PRECIPITATION /E.G. RAIN...SNOW...ETC/
    THUNDER OR FOG.

PAZ002>004-007>009-013>016-020>023-029>032-290100-
WESTERN PENNSYLVANIA

CITY           SKY/WX    TMP DP  RH WIND       PRES   REMARKS
ERIE           CLOUDY    41  40  96 CALM      30.09R FOG
MEADVILLE      CLOUDY    44  41  89 N5        30.06R FOG
FRANKLIN*      CLOUDY    45  39  81 NW3       30.05R
NEW CASTLE     CLOUDY    47  43  86 NW13      30.08R
BEAVER COUNTY  CLOUDY    46  41  81 N7        30.06R
BUTLER*        CLOUDY    48  43  81 NW8       30.05R
PITTSBURGH INT CLOUDY    52  46  80 NW17      30.03R
PITTSBURGH     MOCLDY    53  45  74 NW14G21   30.00R
INDIANA*       CLOUDY    55  52  88 NW7G14    30.01R
LATROBE        CLOUDY    55  54  94 NW8       30.00R
WASHINGTON CO* CLOUDY    54  45  71 NW9       30.04R
$$

PAZ004>006-010>012-017>019-024>028-033>037-041-042-045-046-049>053-290100-
CENTRAL PENNSYLVANIA

CITY           SKY/WX    TMP DP  RH WIND       PRES   REMARKS
BRADFORD       CLOUDY    46  45  96 NW9       30.00R
DUBOIS         CLOUDY    52  44  74 NW12      29.98R
CLEARFIELD       N/A    N/A N/A N/A MISG      29.96R
JOHNSTOWN      CLOUDY    52  51  97 NW9       29.96R
ALTOONA        CLOUDY    58  53  84 N10       29.94R
STATE COLLEGE  DRIZZLE   54  54 100 N3        29.95R FOG
WILLIAMSPORT   CLOUDY    57  50  77 N9        29.94R
SELINSGROVE    CLOUDY    56  54  93 N5        29.92R
FT INDIANTOWN  CLOUDY    53  53 100 CALM      29.90R
CAPITAL CITY   CLOUDY    56  53  90 CALM      29.90R
HARRISBURG     CLOUDY    55  55 100 CALM      29.89R
YORK           CLOUDY    56  56 100 NE3       29.89R
$$

PAZ038>040-043-044-047-048-054-055-060>062-067>071-290100-
EASTERN PENNSYLVANIA

CITY           SKY/WX    TMP DP  RH WIND       PRES   REMARKS
SCRANTON       CLOUDY    52  49  89 E6        29.92R
MOUNT POCONO   LGT RAIN  45  45 100 NW9       29.89R
ALLENTOWN      LGT RAIN  50  47  89 NE3       29.90R
QUAKERTOWN*    CLOUDY    48  48 100 CALM      29.91R
READING        LGT RAIN  50  50 100 CALM      29.89S
LANCASTER      LGT RAIN  53  53 100 NW5       29.90R
COATESVILLE    CLOUDY    50  50 100 N6        29.90S FOG
POTTSTOWN      LGT RAIN  49  48  97 NE3       29.91R FOG
BLUE BELL      CLOUDY    46  46 100 CALM      29.89R
DOYLESTOWN     CLOUDY    46  46 100 CALM      29.89R
WILLOW GROVE   NOT AVBL
NORTH PHILA    CLOUDY    48  46  93 NE9       29.91R FOG
PHILADELPHIA   CLOUDY    50  47  89 N9        29.90R
$$



USA.gov is the U.S. government's official web portal to all federal, state and local government web resources and services.